Location: Ashtead
(51.3000°N, 0.3000°W)
Time: 15:46:15
(UTC+00:00)

CZ-2C R/B - Pass Details

Date: 03 May 2025
Orbit: 781 x 868 km, 98.4° (Epoch: 12 May)

Event Time Altitude Azimuth Distance (km) Brightness Sun altitude
Exits shadow 22:46:49 - 91° (E) 3,054 5.4 -21.0°
Reaches altitude 10° 22:50:02 10° 65° (ENE) 2,388 5.1 -21.1°
Maximum altitude 22:51:33 11° 48° (NE) 2,294 5.3 -21.2°
Drops below altitude 10° 22:53:04 10° 30° (NNE) 2,378 5.6 -21.2°
Sets 22:57:12 0° 358° (N) 3,298 7.2 -21.4°
